Location: Agenbach
(47.2667°N, 11.4500°E)
Time: 18:12:49
(UTC+00:00)

Cosmos 1980 Rocket - Pass Details

Date: 07 June 2020
Orbit: 828 x 851 km, 71.0° (Epoch: 10 July)

Event Time Altitude Azimuth Distance (km) Brightness Sun altitude
Exits shadow 00:51:44 23° 231° (SW) 1,719 3.3 -16.5°
Maximum altitude 00:55:12 56° 302° (WNW) 994 2.6 -16.3°
Drops below altitude 10° 01:00:46 10° 21° (NNE) 2,472 6.0 -15.9°
Sets 01:03:18 0° 25° (NNE) 3,414 7.3 -15.7°
